| time (UTC) | temp F | wind direction | speed MPH | gust MPH | rain 1hr in | rain 24hr in | rain mn in | humidity % | barometer mb |
| 20260901181602 | 75 | 0 | 0.0 | 6.0 | 0.00 | 0.25 | 0.24 | 89 | 1015.0 |
| 20260901180058 | 75 | 0 | 0.0 | 0.0 | 0.00 | 0.25 | 0.24 | 88 | 1015.1 |
| 20260901174555 | 74 | 0 | 1.0 | 7.0 | 0.00 | 0.25 | 0.24 | 89 | 1015.0 |
| 20260901173105 | 74 | 0 | 0.0 | 4.0 | 0.00 | 0.25 | 0.24 | 91 | 1014.9 |
| 20260901171601 | 73 | 0 | 1.0 | 9.0 | 0.00 | 0.25 | 0.24 | 90 | 1015.0 |
| 20260901170108 | 72 | 195 | 0.0 | 5.0 | 0.00 | 0.25 | 0.24 | 94 | 1015.0 |
| 20260901164608 | 71 | 0 | 3.0 | 8.0 | 0.00 | 0.25 | 0.24 | 94 | 1015.3 |
| 20260901163104 | 71 | 0 | 0.0 | 1.0 | 0.00 | 0.25 | 0.24 | 96 | 1015.2 |
| 20260901161601 | 70 | 0 | 0.0 | 5.0 | 0.00 | 0.25 | 0.24 | 96 | 1015.8 |
| 20260901160104 | 70 | 111 | 0.0 | 4.0 | 0.00 | 0.25 | 0.24 | 95 | 1015.9 |
| 20260901154557 | 70 | 0 | 0.0 | 4.0 | 0.00 | 0.25 | 0.24 | 96 | 1016.1 |
| 20260901153057 | 70 | 0 | 0.0 | 1.0 | 0.00 | 0.25 | 0.24 | 96 | 1016.4 |
| 20260901151556 | 70 | 0 | 0.0 | 0.0 | 0.00 | 0.25 | 0.24 | 96 | 1016.3 |
| 20260901150109 | 70 | 0 | 0.0 | 0.0 | 0.00 | 0.25 | 0.24 | 96 | 1016.2 |
| 20260901144600 | 69 | 0 | 0.0 | 1.0 | 0.01 | 0.25 | 0.24 | 96 | 1016.1 |
| 20260901143102 | 69 | 0 | 0.0 | 3.0 | 0.05 | 0.25 | 0.24 | 96 | 1015.9 |
| 20260901141606 | 69 | 0 | 0.0 | 0.0 | 0.07 | 0.25 | 0.24 | 96 | 1016.2 |
| 20260901140107 | 68 | 113 | 0.0 | 0.0 | 0.09 | 0.25 | 0.24 | 96 | 1016.1 |
| 20260901134615 | 68 | 0 | 0.0 | 0.0 | 0.10 | 0.24 | 0.23 | 96 | 1016.4 |
| 20260901133058 | 68 | 0 | 0.0 | 0.0 | 0.12 | 0.20 | 0.19 | 96 | 1016.4 |
| 20260901131557 | 68 | 0 | 0.0 | 0.0 | 0.10 | 0.18 | 0.17 | 96 | 1016.6 |
| 20260901130058 | 68 | 0 | 0.0 | 0.0 | 0.08 | 0.16 | 0.15 | 96 | 1016.7 |
| 20260901124559 | 68 | 0 | 0.0 | 0.0 | 0.06 | 0.14 | 0.13 | 96 | 1016.7 |
| 20260901123058 | 68 | 0 | 0.0 | 0.0 | 0.00 | 0.08 | 0.07 | 96 | 1017.1 |
| 20260901121554 | 68 | 0 | 0.0 | 0.0 | 0.00 | 0.08 | 0.07 | 96 | 1016.5 |
| 20260901120056 | 67 | 0 | 0.0 | 0.0 | 0.01 | 0.08 | 0.07 | 96 | 1016.5 |
| 20260901114558 | 67 | 0 | 0.0 | 2.0 | 0.01 | 0.08 | 0.07 | 96 | 1016.4 |
| 20260901113059 | 67 | 0 | 0.0 | 2.0 | 0.01 | 0.08 | 0.07 | 96 | 1016.3 |
| 20260901111556 | 67 | 0 | 0.0 | 0.0 | 0.01 | 0.08 | 0.07 | 96 | 1016.5 |
| 20260901110055 | 67 | 0 | 0.0 | 3.0 | 0.00 | 0.07 | 0.06 | 96 | 1016.5 |
| 20260901104557 | 67 | 0 | 0.0 | 0.0 | 0.00 | 0.07 | 0.06 | 96 | 1016.4 |
| 20260901103054 | 67 | 0 | 0.0 | 0.0 | 0.00 | 0.07 | 0.06 | 96 | 1016.5 |
| 20260901101609 | 67 | 0 | 0.0 | 0.0 | 0.00 | 0.07 | 0.06 | 96 | 1016.4 |
| 20260901100100 | 67 | 0 | 0.0 | 1.0 | 0.00 | 0.07 | 0.06 | 96 | 1016.1 |
| 20260901094553 | 67 | 0 | 0.0 | 0.0 | 0.00 | 0.07 | 0.06 | 95 | 1016.1 |
| 20260901093102 | 67 | 0 | 0.0 | 1.0 | 0.01 | 0.07 | 0.06 | 95 | 1016.3 |
| 20260901091558 | 67 | 131 | 0.0 | 1.0 | 0.01 | 0.07 | 0.06 | 95 | 1016.1 |
| 20260901090105 | 67 | 0 | 0.0 | 3.0 | 0.01 | 0.07 | 0.06 | 95 | 1016.3 |
| 20260901084601 | 66 | 0 | 0.0 | 2.0 | 0.01 | 0.07 | 0.06 | 95 | 1016.5 |
| 20260901083101 | 66 | 0 | 0.0 | 1.0 | 0.00 | 0.06 | 0.05 | 95 | 1016.4 |
| 20260901081601 | 66 | 0 | 0.0 | 3.0 | 0.01 | 0.06 | 0.05 | 95 | 1016.7 |
| 20260901080115 | 66 | 0 | 0.0 | 3.0 | 0.01 | 0.06 | 0.05 | 95 | 1016.9 |
| 20260901074600 | 66 | 0 | 0.0 | 1.0 | 0.01 | 0.06 | 0.05 | 95 | 1017.1 |
| 20260901073056 | 66 | 0 | 0.0 | 1.0 | 0.01 | 0.06 | 0.05 | 95 | 1017.2 |
| 20260901071605 | 66 | 0 | 0.0 | 0.0 | 0.01 | 0.05 | 0.04 | 95 | 1017.2 |
| 20260901070104 | 66 | 0 | 0.0 | 2.0 | 0.02 | 0.05 | 0.04 | 95 | 1017.2 |
| 20260901064604 | 66 | 0 | 0.0 | 0.0 | 0.02 | 0.05 | 0.04 | 95 | 1017.4 |
| 20260901063059 | 66 | 0 | 0.0 | 0.0 | 0.03 | 0.05 | 0.04 | 95 | 1017.4 |
| 20260901061603 | 66 | 0 | 0.0 | 1.0 | 0.02 | 0.04 | 0.03 | 95 | 1017.7 |
| 20260901060108 | 66 | 0 | 0.0 | 1.0 | 0.01 | 0.03 | 0.02 | 95 | 1017.7 |
| 20260901054559 | 66 | 0 | 0.0 | 0.0 | 0.02 | 0.04 | 0.02 | 95 | 1017.8 |
| 20260901053122 | 66 | 0 | 0.0 | 1.0 | 0.01 | 0.03 | 0.01 | 95 | 1017.9 |
| 20260901051609 | 66 | 0 | 0.0 | 2.0 | 0.01 | 0.03 | 0.01 | 95 | 1018.0 |
| 20260901050105 | 66 | 0 | 0.0 | 1.0 | 0.01 | 0.03 | 0.01 | 95 | 1017.9 |
| 20260901044609 | 66 | 0 | 0.0 | 2.0 | 0.00 | 0.02 | 0.00 | 95 | 1018.1 |
| 20260901043100 | 66 | 0 | 0.0 | 0.0 | 0.01 | 0.02 | 0.00 | 95 | 1018.3 |
| 20260901041559 | 66 | 0 | 0.0 | 1.0 | 0.01 | 0.02 | 0.00 | 94 | 1018.3 |
| 20260901040114 | 66 | 0 | 0.0 | 0.0 | 0.01 | 0.02 | 0.00 | 94 | 1018.3 |
| 20260901034609 | 66 | 209 | 0.0 | 0.0 | 0.01 | 0.02 | 0.02 | 94 | 1018.5 |
| 20260901033100 | 66 | 0 | 0.0 | 0.0 | 0.00 | 0.01 | 0.01 | 94 | 1018.4 |
| 20260901031557 | 66 | 0 | 0.0 | 3.0 | 0.00 | 0.01 | 0.01 | 94 | 1018.4 |
| 20260901030104 | 66 | 0 | 0.0 | 1.0 | 0.00 | 0.01 | 0.01 | 94 | 1018.4 |
| 20260901024601 | 66 | 51 | 0.0 | 2.0 | 0.00 | 0.02 | 0.01 | 94 | 1018.5 |
| 20260901023107 | 66 | 0 | 0.0 | 1.0 | 0.00 | 0.02 | 0.01 | 94 | 1018.7 |
| 20260901021557 | 66 | 0 | 0.0 | 0.0 | 0.00 | 0.02 | 0.01 | 94 | 1018.9 |
| 20260901020059 | 66 | 0 | 0.0 | 0.0 | 0.00 | 0.02 | 0.01 | 94 | 1018.9 |
| 20260901014600 | 66 | 0 | 0.0 | 0.0 | 0.00 | 0.12 | 0.01 | 94 | 1018.7 |
| 20260901013057 | 66 | 0 | 0.0 | 3.0 | 0.00 | 0.12 | 0.01 | 93 | 1018.7 |
| 20260901011605 | 66 | 0 | 0.0 | 0.0 | 0.00 | 0.12 | 0.01 | 93 | 1018.9 |
| 20260901010056 | 66 | 0 | 0.0 | 3.0 | 0.00 | 0.12 | 0.01 | 93 | 1019.0 |
| 20260901004608 | 66 | 0 | 0.0 | 3.0 | 0.00 | 0.12 | 0.01 | 92 | 1019.1 |
| 20260901003103 | 66 | 111 | 0.0 | 6.0 | 0.00 | 0.12 | 0.01 | 91 | 1018.9 |
| 20260901001600 | 66 | 0 | 0.0 | 4.0 | 0.00 | 0.12 | 0.01 | 91 | 1018.9 |
| 20260901000056 | 66 | 0 | 0.0 | 3.0 | 0.00 | 0.12 | 0.01 | 91 | 1018.7 |
| 20260831234553 | 66 | 171 | 1.0 | 5.0 | 0.00 | 0.12 | 0.01 | 91 | 1018.6 |
| 20260831233101 | 66 | 0 | 0.0 | 0.0 | 0.00 | 0.12 | 0.01 | 92 | 1018.7 |
| 20260831231602 | 67 | 0 | 0.0 | 0.0 | 0.00 | 0.12 | 0.01 | 92 | 1018.8 |
| 20260831230115 | 67 | 0 | 0.0 | 0.0 | 0.00 | 0.12 | 0.01 | 92 | 1019.1 |
| 20260831224559 | 67 | 0 | 0.0 | 0.0 | 0.00 | 0.12 | 0.01 | 91 | 1019.2 |
| 20260831223058 | 68 | 0 | 0.0 | 0.0 | 0.00 | 0.12 | 0.01 | 89 | 1019.3 |
| 20260831221603 | 69 | 198 | 0.0 | 5.0 | 0.00 | 0.12 | 0.01 | 86 | 1019.4 |
| 20260831220121 | 69 | 0 | 0.0 | 5.0 | 0.00 | 0.12 | 0.01 | 84 | 1019.4 |
| 20260831214601 | 70 | 185 | 0.0 | 2.0 | 0.00 | 0.12 | 0.01 | 86 | 1019.4 |
| 20260831213128 | 70 | 0 | 0.0 | 0.0 | 0.00 | 0.12 | 0.01 | 87 | 1019.2 |
| 20260831211616 | 70 | 0 | 0.0 | 0.0 | 0.00 | 0.12 | 0.01 | 86 | 1019.2 |
| 20260831204600 | 70 | 0 | 0.0 | 0.0 | 0.00 | 0.12 | 0.01 | 86 | 1019.2 |
| 20260831203101 | 71 | 0 | 0.0 | 2.0 | 0.00 | 0.12 | 0.01 | 84 | 1019.2 |
| 20260831201602 | 71 | 263 | 1.0 | 3.0 | 0.00 | 0.12 | 0.01 | 84 | 1019.2 |
| 20260831200100 | 71 | 186 | 1.0 | 3.0 | 0.00 | 0.12 | 0.01 | 83 | 1019.4 |
| 20260831194558 | 71 | 0 | 0.0 | 3.0 | 0.00 | 0.12 | 0.01 | 82 | 1019.4 |
| 20260831193102 | 71 | 0 | 1.0 | 4.0 | 0.00 | 0.12 | 0.01 | 82 | 1019.5 |
| 20260831191601 | 72 | 250 | 2.0 | 6.0 | 0.00 | 0.12 | 0.01 | 81 | 1019.7 |
| 20260831190108 | 72 | 241 | 2.0 | 7.0 | 0.00 | 0.12 | 0.01 | 78 | 1019.9 |
| 20260831184611 | 73 | 267 | 3.0 | 7.0 | 0.00 | 0.12 | 0.01 | 74 | 1020.0 |
| 20260831183059 | 73 | 325 | 4.0 | 8.0 | 0.00 | 0.12 | 0.01 | 74 | 1020.0 |